World > North America > United States > Ohio > Mount Washington  

Mount Washington, OH Hourly Weather Updates

Feedback E-mail the Weather

Quick Clicks

Mount Washington, OH Weather Maps

°F °C°F °C
Mount Washington Weather Map
UTC Time: 4/23/2024, 18:19
Your Time:

Mount Washington, OH Regional Weather

Expires:202404231900;;249827
ASUS41 KCLE 231812
RWRCLE
OHIO REGIONAL WEATHER ROUNDUP
NATIONAL WEATHER SERVICE WILMINGTON, OH
200 PM EDT TUE APR 23 2024

NOTE: "FAIR" INDICATES FEW OR NO CLOUDS BELOW 12,000 FEET WITH NO
SIGNIFICANT WEATHER AND/OR OBSTRUCTIONS TO VISIBILITY.


OHZ042-051>053-060>062-070>072-077>081-231900-
  SOUTHWEST OHIO
  
CITY           SKY/WX    TMP DP  RH WIND       PRES   REMARKS
CINC-COVINGTON CLOUDY    65  39  38 SW14G32   29.97F                  
CINC-LUNKEN    FAIR      66  41  40 SW17G24   29.97F                  
HAMILTON       FAIR      67  39  35 SW8       29.96F                  
DAYTON         CLOUDY    63  40  42 SW18G29   29.94F                  
WRIGHT-PAT AFB FAIR      63  38  39 SW20      29.94F                  
DAYTON GENERAL FAIR      63  37  38 SW15G28   29.94F                  
WILMINGTON     FAIR      63  39  41 SW17      29.96F                  
$$


SKY/WX - Weather  TMP - Temperature  DP - Dew Point  RH - Humidity
WIND - Wind Direction/Speed PRES - Barometric Pressure VSB - Visibility
WCI - Wind Chill Index E13G22 Wind - East Wind 13 mph/Gusts of 22 mph

Trending Headlines

Trending Entertainment Headlines

Mount Washington Radar Loop

Use the map search tool if you want to place a location marker on the radar map...

Mount Washington Quick Facts

National Two Day Weather Forecast


E-mail the Mount Washington Weather Forecast

Voice your opinion or tell us about page issues...